Rawlins, WY

12:04 PM MST on January 18, 2018 (GMT -0700)
Rawlins Municipal

Weather History for KRWL - February, 2013

Change the Weather History Date:

Sunday, February 17, 2013

  Actual Average Record
Temperature  
Mean Temperature 28 °F 24 °F  
Max Temperature 35 °F 34 °F 51 °F (1996)
Min Temperature 20 °F 14 °F -21 °F (2006)
Degree Days  
Heating Degree Days 37 41  
Month to date heating degree days 709 723  
Since 1 July heating degree days 5075 5522  
Cooling Degree Days 0 0  
Month to date cooling degree days 0 0  
Year to date cooling degree days 0 0  
Moisture  
Dew Point 14 °F    
Average Humidity 58    
Maximum Humidity 77    
Minimum Humidity 39    
Precipitation  
Precipitation T in 0.02 in 0.60 in (2000)
Month to date precipitation 0.14 0.24  
Year to date precipitation 0.31 0.60  
Sea Level Pressure  
Sea Level Pressure 29.80 in    
Wind  
Wind Speed 17 mph (West)    
Max Wind Speed 31 mph    
Max Gust Speed 37 mph    
Visibility 9 miles    
Events Snow    
T = Trace of Precipitation, MM = Missing Value Source: NWS Daily Summary

Daily Weather History Graph

Daily Weather History Graph

Search for Another Location

Airport or City:

Trip Planner

Search our weather history database for the weather conditions in past years. The results will help you decide how hot, cold, wet, or windy it might be!

Date:

Astronomy

Feb. 17, 2013 Rise Set
Actual Time 7:01 AM MST 5:44 PM MST
Civil Twilight 6:32 AM MST 6:13 PM MST
Nautical Twilight 6:00 AM MST 6:45 PM MST
Astronomical Twilight 5:28 AM MST 7:18 PM MST
Moon 10:49 AM MST (2/17) 12:50 AM MST (2/17)
Length of Visible Light 11h 40m
Length of Day
10h 43m
Waxing Crescent, 49% of the Moon is Illuminated
Feb 17
Waxing Crescent
Feb 17
First Quarter
Feb 25
Full
Mar 4
Last Quarter
Mar 11
New

Hourly Weather History & Observations

Time (MST) Temp. Windchill Dew Point Humidity Pressure Visibility Wind Dir Wind Speed Gust Speed Precip Events Conditions
12:53 AM 28.0 °F 20.0 °F 14.0 °F 56% 29.98 in 10.0 mi SW 8.1 mph - N/A   Clear
1:53 AM 28.0 °F 15.7 °F 12.9 °F 53% 29.94 in 10.0 mi WSW 17.3 mph - N/A   Clear
2:53 AM 28.0 °F 15.7 °F 12.0 °F 51% 29.90 in 10.0 mi WSW 17.3 mph - N/A   Clear
3:53 AM 28.9 °F 16.1 °F 10.9 °F 47% 29.84 in 10.0 mi WSW 19.6 mph - N/A   Clear
4:53 AM 30.0 °F 17.2 °F 9.0 °F 41% 29.82 in 10.0 mi WSW 20.7 mph 28.8 mph N/A   Clear
5:53 AM 30.9 °F 18.1 °F 9.0 °F 40% 29.83 in 10.0 mi SW 21.9 mph 27.6 mph N/A   Clear
6:53 AM 28.9 °F 20.4 °F 10.0 °F 45% 29.82 in 10.0 mi SW 9.2 mph 16.1 mph N/A   Clear
7:53 AM 30.9 °F 19.1 °F 12.0 °F 46% 29.78 in 10.0 mi SW 18.4 mph 25.3 mph N/A   Clear
8:53 AM 33.1 °F 22.6 °F 12.9 °F 43% 29.77 in 10.0 mi WSW 16.1 mph 21.9 mph N/A   Scattered Clouds
9:53 AM 33.1 °F 20.9 °F 14.0 °F 46% 29.76 in 10.0 mi SW 21.9 mph 28.8 mph N/A   Partly Cloudy
10:53 AM 34.0 °F 22.1 °F 16.0 °F 48% 29.76 in 10.0 mi WSW 21.9 mph 29.9 mph N/A   Clear
11:53 AM 34.0 °F 21.8 °F 16.0 °F 48% 29.75 in 10.0 mi WSW 23.0 mph 31.1 mph N/A   Clear
12:53 PM 34.0 °F 21.0 °F 19.0 °F 54% 29.72 in 10.0 mi WSW 26.5 mph 32.2 mph N/A   Clear
1:53 PM 34.0 °F 21.5 °F 17.1 °F 50% 29.71 in 10.0 mi West 24.2 mph 32.2 mph N/A   Mostly Cloudy
2:53 PM 33.1 °F 20.1 °F 12.9 °F 43% 29.70 in 10.0 mi WSW 25.3 mph 33.4 mph N/A   Overcast
3:53 PM 30.9 °F 18.1 °F 14.0 °F 50% 29.72 in 10.0 mi West 21.9 mph 26.5 mph N/A   Overcast
4:53 PM 28.9 °F 17.7 °F 15.1 °F 56% 29.74 in 10.0 mi West 15.0 mph - N/A   Overcast
5:53 PM 27.0 °F 13.2 °F 12.0 °F 53% 29.77 in 10.0 mi West 20.7 mph 26.5 mph N/A   Overcast
6:53 PM 26.1 °F 12.0 °F 12.0 °F 55% 29.80 in 10.0 mi West 20.7 mph 27.6 mph N/A   Overcast
8:23 PM 23.0 °F 11.7 °F 17.6 °F 80% 29.78 in 1.8 mi NNW 11.5 mph - 0.00 in Snow Light Snow
8:29 PM 23.0 °F 13.9 °F 17.6 °F 80% 29.78 in 2.0 mi NNW 8.1 mph - 0.00 in Snow Light Snow
8:39 PM 23.0 °F - 19.4 °F 86% 29.78 in 3.0 mi Calm Calm - 0.00 in Snow Light Snow
8:53 PM 21.9 °F 17.2 °F 18.0 °F 85% 29.84 in 7.0 mi West 3.5 mph - 0.00 in Snow Light Snow
9:15 PM 21.2 °F 10.1 °F 17.6 °F 86% 29.80 in 2.5 mi NW 10.4 mph - 0.00 in Snow Light Snow
9:39 PM 21.2 °F 13.6 °F 17.6 °F 86% 29.81 in 6.0 mi WNW 5.8 mph - 0.00 in Snow Light Snow
10:53 PM 21.0 °F 8.6 °F 16.0 °F 81% 29.88 in 10.0 mi NW 12.7 mph - 0.00 in   Overcast
11:53 PM 21.0 °F 8.6 °F 15.1 °F 78% 29.90 in 10.0 mi NW 12.7 mph - 0.00 in   Overcast